Starlink 32481

operational
NORAD ID: 62320 Int'l Des: 2024-239 Owner: SPXS Country: US Constellation: starlink
LEOCIRCULAR

About Starlink 32481

Description loading...

Live Position

Loading 3D Globe...

Upcoming Passes

Altitude History

Altitude vs Time

uPlot chart will show altitude changes over time

Two-Line Element Set

1 62320U 24239V 25307.54030855 .00038980 00000-0 13212-2 0 9999
2 62320 53.1634 46.8223 0001745 93.9580 266.1620 15.30201482 50254
Epoch: Nov 3, 2025 • Age: 14 hours

Current Status

Altitude 487.5 km
Velocity 7.62 km/s
Sub-Earth Point -36.31°S, 176.34°E
Launch Date Dec 13, 2024
Age 0.8 years
Type internet

Technical Details

Classification Payload
Mass 730.00 kg
Dry Mass 700.00 kg
Total Mass 730.00 kg
Length 0.30 m
Diameter 4.10 m
Span 29.00 m
Shape Box + pan
Manufacturer SPXS
Bus Type Starlink V2M
Phase Status In Orbit
Owner/State SPXS/US

Large Constellations

Loading constellations...